Tracking 30743 objects as of 21-Jun-2025
HD Live streaming from Space Station
objects crossing your sky now

NOAA 16 DEB

Track NOAA 16 DEB now!
10-day predictions


NORAD ID: 41498
Int'l Code: 2000-055LW
Perigee: 804.9 km
Apogee: 832.5 km
Inclination: 99.0 °
Period: 101.1 minutes
Semi major axis: 7189 km
RCS: Unknown
Launch date: September 21, 2000
Source: United States (US)
Launch site: AIR FORCE WESTERN TEST RANGE (AFWTR)

Note: This is SATELLITE DEBRIS
Your satellite tracking list
Your tracking list is empty




NASA's NSSDC Master Catalog

Two Line Element Set (TLE):
1 41498U 00055LW  25172.32425209  .00002017  00000-0  89554-3 0  9994
2 41498  98.9692 304.6030 0019185 263.3512  96.5482 14.24076985480421
Source of the keplerian elements: AFSPC